Regional Weather Roundup
Issued by NWS Sioux Falls, SD

Home | Current Version | Previous Version | Text Only | Print | Product List | Glossary Off
Versions: 1 2 3 4 5 6 7 8 9 10 11 12 13 14 15 16 17 18 19 20 21 22 23 24 25 26 27 28 29 30 31 32 33 34 35 36 37 38 39 40 41 42 43 44 45 46 47 48 49 50

000
ASUS43 KFSD 160602
RWRFSD

WEATHER ROUNDUP FOR SE SOUTH DAKOTA/SW MINNESOTA/NW IOWA
NATIONAL WEATHER SERVICE SIOUX FALLS SD
1200 AM CST SAT DEC 16 2017

NOTE: "FAIR" INDICATES FEW OR NO CLOUDS BELOW 12,000 FEET WITH NO
SIGNIFICANT WEATHER AND OR OBSTRUCTIONS TO VISIBILITY.


SDZ038>040-050-052>070-160700-
SOUTHEAST SOUTH DAKOTA

CITY           SKY/WX    TMP DP  RH WIND       PRES   REMARKS
BROOKINGS      CLOUDY    34  27  75 SW7       29.60R WCI  28
CHAMBERLAIN    PTCLDY    39  28  64 W9        29.65S
6HR MIN TEMP:  38; 6HR MAX TEMP:  45;

HURON          CLOUDY    36  27  69 SW5       29.60R
6HR MIN TEMP:  34; 6HR MAX TEMP:  39;

MADISON        FAIR      37  32  81 W10       29.60S
MITCHELL       CLOUDY    39  28  64 W8        29.64R
6HR MIN TEMP:  39; 6HR MAX TEMP:  44;

SIOUX FALLS    CLOUDY    37  28  70 SW3       29.62F
6HR MIN TEMP:  35; 6HR MAX TEMP:  40;

WINNER         FAIR      42  25  50 W9        29.66S
YANKTON        CLOUDY    37  25  61 CALM      29.65S
$$

MNZ071-072-080-081-089-090-097-098-160700-
SOUTHWEST MINNESOTA

CITY           SKY/WX    TMP DP  RH WIND       PRES   REMARKS
FAIRMONT       CLOUDY    36  27  69 S9        29.63F
JACKSON        CLOUDY    36  28  75 SW12      29.62F
LUVERNE        CLOUDY    32  25  74 S5        29.63F WCI  27
MARSHALL       CLOUDY    39  28  64 W13       29.60R
6HR MIN TEMP:  35; 6HR MAX TEMP:  39;

MONTEVIDEO     CLOUDY    34  28  80 CALM      29.60R
PIPESTONE      CLOUDY    32  27  80 SW7       29.60F WCI  26
REDWOOD FALLS  CLOUDY    34  29  82 CALM      29.61S
WINDOM           N/A     37  21  52 SW6       29.61F
WORTHINGTON    CLOUDY    35  27  72 SW10      29.62F WCI  27
$$

IAZ001>003-012>014-020>022-031-032-NEZ013-014-SDZ071-160700-
NORTHWEST IOWA

CITY           SKY/WX    TMP DP  RH WIND       PRES   REMARKS
CHEROKEE       CLOUDY    31  26  81 S3        29.66F
DENISON        CLOUDY    37  25  60 SW10      29.71S
ESTHERVILLE    CLOUDY    36  28  73 SW13      29.63F
LE MARS        PTCLDY    32  25  74 S5        29.65F WCI  27
ORANGE CITY    PTCLDY    34  28  80 S3        29.64F
SHELDON        CLOUDY    36  28  75 SW8       29.63S
SIOUX CITY     CLOUDY    28  23  81 SE5       29.67S WCI  23
6HR MIN TEMP:  28; 6HR MAX TEMP:  41;

SPENCER        PTCLDY    35  26  69 SW12      29.64F WCI  27
6HR MIN TEMP:  35; 6HR MAX TEMP:  39;

STORM LAKE     CLOUDY    34  25  69 SW9       29.66F WCI  26
$$

ABBREVIATIONS USED IN REMARKS
   TC - TEMPERATURE IN CELSIUS
  WCI - WIND CHILL INDEX
   HX - HEAT INDEX
  VSB - VISIBILITY




USA.gov is the U.S. government's official web portal to all federal, state and local government web resources and services.